Starlink 1912

operational
NORAD ID: 47178 Int'l Des: 2020-088 Owner: SPXS Country: US Constellation: starlink
LEOCIRCULAR

About Starlink 1912

Description loading...

Live Position

Loading 3D Globe...

Upcoming Passes

Altitude History

Altitude vs Time

uPlot chart will show altitude changes over time

Two-Line Element Set

1 47178U 20088BJ 26074.49252463 .00092538 00000-0 12413-2 0 9999
2 47178 53.0514 253.3331 0006513 190.8612 169.2259 15.57193406293020
Epoch: Mar 15, 2026 • Age: 14 hours

Current Status

Altitude 402.2 km
Velocity 7.68 km/s
Sub-Earth Point 52.50°N, 148.13°E
Launch Date Nov 25, 2020
Age 5.3 years
Type internet

Technical Details

Classification Payload
Mass 260.00 kg
Dry Mass 248.00 kg
Total Mass 260.00 kg
Length 0.20 m
Diameter 2.80 m
Span 9.00 m
Shape Box + pan
Manufacturer SPXS
Bus Type Starlink
Phase Status In Orbit
Owner/State SPXS/US

Large Constellations

Loading constellations...